sat.trackr.live / text

‹ back to catalog

ISS (NAUKA)

NORAD 49044 · 2021-066A

PAYLOAD ACTIVE UNKNOWN

§ Identity

Operator
Country
CIS
Launch date
2021-07-21
Launch site
TYMSC
Launch vehicle
Mass (kg)
RCS (m²)

Purposes: station

External: N2YO · Heavens-Above · Gunter

§ Orbital elements

Epoch: 2026-09-20T03:25:16.706208Z

Period
92.95 min
Inclination
51.6307°
Eccentricity
0.0004820
Mean motion
15.49188396 rev/d
Perigee alt
415.8 km
Apogee alt
422.4 km
Semi-major
6,797.2 km
B*
1.4267e-4
RAAN
190.1401°
Arg perigee
160.6694°
Mean anomaly
199.4478°
Rev number
58,699

§ Raw data

ISS (NAUKA)1 49044U 21066A   26263.14255447  .00007470  00000+0  14267-3 0  99972 49044  51.6307 190.1401 0004820 160.6694 199.4478 15.49188396586990

JSON: /api/v1/satellites/49044 · /tle

For live sub-satellite position, see the globe view (requires WebGL).

§ Visibility from observer

Set your observer location to see the next 7 days of passes ≥ 10°. The values pass through the URL so the page stays shareable.

No JS? Fill the form by hand. The geolocation button needs JavaScript.

§ Radio — SatNOGS DB

ModeDescriptionDownlinkUplink
FM Mode V - FM 166.075 MHz
FM NAUKA strong sideband 631.129 MHz
FM NAUKA strong sideband 630.873 MHz
FM Telemetry 631.000 MHz

4 transmitters · refreshed weekly from db.satnogs.org